User: anonymous   Login
Location: Bushey
(51.6333°N, 0.3667°W)
Time: 20:00:23
(UTC+00:00)
Language:

Cosmos 1992 Rocket - Orbit

View from above orbital plane
View from above orbital plane
View from above satellite
View from above satellite

Ground track
Ground track

The orbit data is extracted from the following two-line orbital elements,

1 19770U 89005B   21134.78706066  .00000017  00000-0  14016-4 0  9991
2 19770  74.0442 297.9402 0004635  12.7833  89.4850 14.38871792691608
Epoch (UTC): 14 May 2021 18:53:22
Eccentricity: 0.0004635
inclination: 74.0442°
perigee height: 759 km
apogee height: 765 km
right ascension of ascending node: 297.9402°
argument of perigee: 12.7833°
revolutions per day: 14.38871792
mean anomaly at epoch: 89.4850°
orbit number at epoch: 69160

The dashed part of the orbit path shows where the satellite is in the earth's shadow,  

DLR